Regional Weather Roundup
Issued by NWS Wakefield, VA

Home | Current Version | Previous Version | Graphics & Text | Print | Product List | Glossary On
Versions: 1 2 3 4 5 6 7 8 9 10 11 12 13 14 15 16 17 18 19 20 21 22 23 24 25 26 27 28 29 30 31 32 33 34 35 36 37 38 39 40 41 42 43
000
ASUS41 KAKQ 251110
RWRAKQ

REGIONAL WEATHER ROUNDUP
NATIONAL WEATHER SERVICE WAKEFIELD VA
600 AM EST THU DEC 25 2014

Note: "fair" indicates few or no clouds below 12,000 feet with no
significant weather and/or obstructions to visibility. * = Denotes
station may not report precipitation (e.g., rain,snow,etc.),
thunder or fog.

VAZ042-051-052>054-056-251200-
NORTHERN VIRGINIA

CITY           SKY/WX    TMP DP  RH WIND       PRES   REMARKS
WASH NATIONAL  CLOUDY    51  43  74 N6        29.71R
DULLES         CLOUDY    47  41  80 NW8       29.72R
FORT BELVOIR   CLOUDY    49  45  84 NW5       29.74R
QUANTICO       CLOUDY    51  44  77 N6        29.72R
FREDERICKSBRG* CLOUDY    55  54  97 NW3       29.70S
STAFFORD*      CLOUDY    50  50 100 NW5       29.76R
WARRENTON      CLOUDY    51  47  86 W9        29.71R
CULPEPER*      CLOUDY    54  41  62 NW5       29.72R
MANASSAS*      CLOUDY    48  45  87 N7        29.72R
LEESBURG*      CLOUDY    46  41  81 NW10      29.73R
WINCHESTER     CLOUDY    48  30  49 W18       29.75R
FRONT ROYAL*   CLOUDY    46  34  61 W7G21     29.75R
LURAY*         CLOUDY    50  36  57 SW9       29.77R
$$

VAZ048-049-060>072-079>083-251200-
CENTRAL AND SOUTH CENTRAL VIRGINIA

CITY           SKY/WX    TMP DP  RH WIND       PRES   REMARKS
RICHMOND       CLOUDY    58  51  78 W13       29.71R
CHESTERFIELD*  CLOUDY    55  43  62 W10       29.73R
PETERSBURG*    CLOUDY    56  49  77 W8        29.73R
HANOVER        CLOUDY    56  49  77 W6        29.71R
TAPPAHANNOCK*  CLOUDY    60  55  83 S13G21    29.70R
QUINTON*       CLOUDY    58  54  86 W9        29.72R
CHARLOTTSVILLE CLOUDY    51  36  56 VRB7      29.73R
GORDONSVILLE*  CLOUDY    51  40  65 SW5       29.74R
ORANGE*        CLOUDY    52  41  66 SW8       29.74R
LOUISA*        CLOUDY    52  46  82 W6        29.73R
BUMPASS*       CLOUDY    52  46  82 W7        29.74R
FARMVILLE*     CLOUDY    52  46  80 W5        29.73R
CREWE*         CLOUDY    52  43  72 W7        29.75R
FORT PICKETT*  CLOUDY    51  44  77 W10       29.76R
CHASE CITY*    CLOUDY    52  44  73 W7        29.79R
CLARKSVILLE*   CLOUDY    50  43  76 W8        29.80R
SOUTH HILL*    CLOUDY    51  43  74 W6        29.83R
LAWRENCEVILLE* CLOUDY    52  47  81 W5        29.76R
EMPORIA*       CLOUDY    55  46  71 W12G25    29.76R
$$

VAZ088>098-251200-
SOUTHEAST VIRGINIA

CITY           SKY/WX    TMP DP  RH WIND       PRES   REMARKS
NORFOLK        CLOUDY    61  56  83 SW3       29.71R
VIRGINIA BEACH CLOUDY    65  62  90 SW8       29.70R
NORFOLK NAVAL  LGT RAIN  63  57  81 SW3       29.72R
WEST POINT*    CLOUDY    60  57  89 W10       29.73R
SALUDA*        PTSUNNY   59  57  92 SW5       29.68R
NEWPORT NEWS   LGT RAIN  61  56  83 S7        29.70R
LANGLEY AFB    LGT RAIN  59  57  93 SW3       29.70R
FORT EUSTIS    CLOUDY    59 N/A N/A S5        29.70R
WILLIAMSBURG*  CLOUDY    61  61 100 SW5       29.72R
HR EXEC AP*    CLOUDY    63  61  94 SW5       29.74R
FRANKLIN*      CLOUDY    61  61 100 SW5       29.73R
WAKEFIELD      CLOUDY    61  56  83 SW8       29.73R
$$

VAZ020-022-025-037-045-251200-
WEST CENTRAL AND SOUTHWEST VIRGINIA

CITY           SKY/WX    TMP DP  RH WIND       PRES   REMARKS
STAUNTON*      CLOUDY    46  34  61 W8        29.80R
WAYNESBORO*    CLOUDY    44  35  69 W3        29.77R
HOT SPRINGS VA CLOUDY    33  33 100 W24G35    29.71R WCI  20
LYNCHBURG      CLOUDY    46  37  71 W5        29.81R
DANVILLE       CLOUDY    49  40  71 VRB6      29.84R
SOUTH BOSTON*  CLOUDY    48  42  80 W3        29.82R
MARTINSVILLE   CLOUDY    46  37  71 W6        29.88R
ROANOKE        CLOUDY    46  33  60 NW24G30   29.84R
BLACKSBURG     CLOUDY    39  32  76 W21G29    29.87R
DUBLIN*        CLOUDY    42  34  75 W17G24    29.87R
MARION*        CLOUDY    38  33  82 W21G28    29.89R
HILLSVILLE*    CLOUDY    38  33  81 NW21G29   29.85R
RICHLANDS*     CLOUDY    35  30  83 W8G16     29.91R
WISE*          CLOUDY    36  32  87 W8        29.94R
ABINGDON*      CLOUDY    40  33  75 W12       29.94R
$$

MDZ021>025-VAZ099-100-251200-
SOUTHERN MARYLAND AND THE DELMARVA PENINSULA

CITY           SKY/WX    TMP DP  RH WIND       PRES   REMARKS
PATUXENT RIVER CLOUDY    53  50  89 NW12      29.71R
BAY BRIDGE APT   N/A     48  45  87 NW10      29.72R
LEONARDTOWN    CLOUDY    54  50  87 N6        29.70R
DOVER          DRIZZLE   53  53 100 NW10      29.63S
GEORGETOWN     LGT RAIN  57  53  86 CALM      29.65F
EASTON         LGT RAIN  52  52 100 NW14G21   29.73R
CAMBRIDGE      CLOUDY    55  54  94 NW12      29.70R
SALISBURY      LGT RAIN  60  57  89 CALM      29.65S
OCEAN CITY     LGT RAIN  60  57  89 SW3       29.65S
WALLOPS ISLAND LGT RAIN  59  58  96 SW5       29.66S
ACCOMACK*      LGT RAIN  59  55  88 SW7       29.69R
$$

NCZ012>017-030>032-251200-
NORTH CENTRAL AND EASTERN NORTH CAROLINA

CITY           SKY/WX    TMP DP  RH WIND       PRES   REMARKS
ROANOKE RAPIDS CLOUDY    57  52  82 W15       29.76R
RALEIGH        CLOUDY    55  46  71 W6        29.84R
ELIZABETH CITY CLOUDY    68  62  81 S8        29.73R
AHOSKIE*       CLOUDY    62  55  79 CALM      29.74R
EDENTON*       CLOUDY    63  62  96 SW9       29.74R
CURRITUCK*     CLOUDY    65  62  91 SW6       29.74R
KILL DEVIL HLS CLOUDY    64  63  99 SW8       29.74R
MANTEO         CLOUDY    59  59 100 SW6       29.76R
CAPE HATTERAS  CLOUDY    60  60 100 SW13      29.78R FOG
TARBORO*       CLOUDY    63  50  63 W17       29.80R
GOLDSBORO      CLOUDY    59  54  85 W21       29.80R
WASHINGTON     CLOUDY    64  60  86 SW13G20   29.76R
GREENVILLE     CLOUDY    63  52  67 W14G20    29.80R
NEW BERN       LGT RAIN  67  62  84 W15G24    29.80R
WILMINGTON     CLOUDY    60  50  69 W15       29.85R
$$

VAZ048-251200-
ELSEWHERE

CITY           SKY/WX    TMP DP  RH WIND       PRES   REMARKS
HARRISBURG PA  CLOUDY    44  39  82 NW5       29.68R
BALTIMORE      LGT RAIN  48  42  80 W8        29.69R
ANNAPOLIS      CLOUDY    48  42  80 NW8       29.69R
ANDREWS AFB    CLOUDY    49  44  84 NW10      29.69F
PHILADELPHIA   LGT RAIN  53  45  74 W17G23    29.68R
HENDERSON NC   CLOUDY    52  43  71 NW9       29.81R
GREENSBORO     CLOUDY    47  38  71 W7        29.84R
ROCKY MOUNT    CLOUDY    60  50  69 SW12G23   29.78R
$$

VAZ100-251200-
MARINE

STATION/POSITION TIME  TEMP    WIND        PRES    WAVE   SWELL
                       AIR SEA DIR/SP/G            HT/PER HT/PER
                 (UTC) (F)     (DEG/KT/KT) (MB)    (FT/S) (FT/S)
CAPE MAY NJ      1100   50 47   CALM  /  5 1003.5F
LEWES DE         1100   55 44  330/  7/  7 1003.7F
15NM E FENWICK I 1100   49 45              1004.7R   7/ 8
OCEAN-CITY-INLET 1100   60 47  290/  4/  5 1003.7R
WACHAPREAGUE VA  1100   60 51  250/  3/  4 1004.6S
THOMAS POINT MD  1100   51 42  310/ 12/ 14 1007.2R
GOOSES REEF MD   1100   49     VRB 14/ 16  1004.9R
COVE POINT MD    1100   49     360/ 17/ 22 1005.2R
SOLOMONS ISLAND  1100      43                N/A
BISHOPS HEAD MD  1100   48 44  230/  4/  4 1004.4R
PINEY POINT MD   1100          280/  8/  8   N/A
POTOMAC MD       1100   49     250/  4/  4 1003.6R
CAMBRIDGE MD     1100   50 41  360/ 26/ 29 1003.6R
LEWISETTA VA     1100   58 44  270/  5/  6 1005.2R
RAPPAHANNOCK LGT 1100          220/ 13/ 14 1005.7R
STINGRAY PT      1100   51     200/  4/  6 1005.6R
YORK RVR RNG VA  1100   59     230/ 11/ 12 1004.9R
YORKTOWN VA      1100   59 45  190/  4/  5 1005.1R
JAMESTOWN VA     1100   55     220/  4/  6   N/A
DOMINION TERM VA 1100   56     250/  7/  8 1006.0R
KIPTOPEKE VA     1100      51  260/  7/  9   N/A
CHES BAY BRIDGE  1100   59 46  250/ 10/ 12 1005.1S
CAPE HENRY VA    1100   60     250/  6/ 10 1004.4R
CHESAPEAKE LGHT  1000   62     240/ 20/ 20 1005.4R
WILLOUBY STN VA  1100   56     240/  7/  7 1006.3R
S CRANEY ISL VA  1100          260/  4/  5 1005.9R
CAPE HENRY BUOY  1100      49                N/A     4/ 7
1ST LANDING BUOY 1100   53     270/ 10/ 10 1005.5S
CAPE CHARLES BUO 1100      47                N/A     3/ 8   2/ 8
64NM E OF VA BCH 1100   56 53  220/  6/  8 1006.2R   6/ 8   7/ 8
DUCK PIER NC     1100   62 50  230/ 12/ 14 1006.5R
44100 DUCK FRF   1100      50                N/A     4/ 8
44056 DUCK FRF   1100      50                N/A     3/ 6
OREGON INLET NC  1100   57 54  210/ 13/ 14 1007.4R
HATTERAS NC      1100   61 56  220/  9/ 14 1008.8R
DIAMOND SHLS NC  1100   70                 1008.0R   7/ 7
CAPE LOOKOUT NC  1000   61     220/ 10/ 13 1008.4R
$$


USA.gov is the U.S. government's official web portal to all federal, state and local government web resources and services.